Theta_e
347 352 344 347 348 355 360 353 350 352 352 350 351 350 352 352 352 349 344 342 340 339 335 334 343 336 330 333 328 328 328 326 331 340 341 339 338 338 331 331 333 333 333 333 332 331 331 330 330
353 352 350 347 350 356 360 356 351 351 351 351 350 349 351 352 351 349 345 343 340 340 337 332 333 332 330 329 328 327 328 328 326 330 337 337 337 336 331 331 331 331 330 328 328 329 331 331 333
350 354 355 354 356 354 360 355 351 350 349 350 350 350 351 351 351 349 344 341 341 340 339 338 338 331 330 331 330 329 328 329 329 327 328 333 335 333 330 330 330 329 328 327 329 331 335 337 337
351 354 352 355 359 357 355 353 351 352 350 350 351 352 349 346 342 346 347 341 340 340 340 339 339 339 338 336 332 330 329 331 334 334 329 330 331 330 330 330 331 331 331 331 333 335 336 337 339
346 349 353 354 353 354 352 351 352 353 353 352 351 353 353 351 348 348 349 342 341 342 341 340 340 340 341 341 340 338 334 331 335 338 330 329 331 331 331 333 334 331 331 332 334 336 336 336 334
347 348 352 352 353 353 352 350 353 353 352 352 352 353 352 352 349 349 347 342 341 341 341 341 341 342 342 342 342 342 340 338 340 339 330 332 329 329 330 332 331 329 332 335 336 336 335 336 337
344 348 352 354 353 352 349 351 351 354 353 353 349 353 351 350 350 350 348 347 345 341 340 339 339 340 339 339 339 340 341 342 341 340 340 337 338 337 331 332 332 331 335 334 332 333 336 339 338
345 344 350 349 353 352 348 351 352 353 353 349 345 351 352 351 350 350 349 350 349 341 339 338 338 337 337 337 337 337 338 339 339 339 340 340 339 338 337 333 333 332 332 330 333 335 338 338 331
343 344 346 348 350 350 347 351 353 354 353 353 342 349 351 351 351 350 351 351 351 347 341 341 340 339 338 337 337 337 339 338 339 339 341 342 340 339 339 333 332 332 328 330 337 338 338 335 331
341 340 346 343 346 349 351 350 351 353 353 352 349 349 351 351 351 352 352 351 350 349 344 341 341 338 339 338 337 339 338 338 338 340 341 341 340 340 340 335 330 329 334 339 339 338 337 332 336
342 340 342 343 345 346 346 351 347 345 352 351 348 346 350 351 352 351 351 350 349 349 347 346 345 344 340 340 339 341 340 339 338 341 341 341 339 337 336 333 338 342 337 336 337 335 332 335 337
338 339 340 343 343 344 344 348 351 348 349 348 348 343 347 352 352 352 352 351 349 350 350 349 349 347 343 345 339 339 341 342 343 343 340 341 343 342 342 342 339 334 333 332 329 330 331 337 344
337 337 339 340 341 343 343 345 345 350 348 351 348 345 344 351 352 352 352 350 349 350 350 348 349 348 346 348 348 343 345 344 344 345 341 342 344 343 343 344 341 342 336 336 341 344 341 338 342
335 335 337 339 339 340 343 341 344 351 350 350 349 345 348 350 350 351 351 350 350 350 350 348 350 349 347 346 348 347 347 346 346 344 342 341 341 341 341 342 343 343 343 342 339 343 344 341 344
333 334 333 334 333 339 340 342 342 350 350 350 349 349 349 350 350 350 351 351 350 349 349 348 348 347 348 347 348 348 348 348 347 346 345 343 341 341 336 341 340 341 342 343 344 344 341 345 342
331 334 339 336 333 336 334 334 338 346 351 350 350 350 350 350 351 350 349 350 350 349 349 348 349 349 347 348 348 347 346 346 345 345 347 345 339 343 346 345 339 341 344 345 343 344 344 342 342
329 333 337 338 335 334 332 330 334 341 343 346 352 350 350 351 351 349 349 348 350 350 349 349 348 348 348 348 349 348 347 346 347 346 344 346 344 343 344 343 343 343 343 344 345 342 342 344 343
331 335 334 337 335 333 331 331 331 340 342 343 344 346 350 349 348 350 348 347 350 349 349 349 348 348 348 349 347 347 347 346 346 346 345 347 347 344 345 339 344 346 346 342 345 341 343 345 346
327 329 329 329 330 332 331 331 329 332 342 343 343 345 347 348 347 346 347 347 349 349 349 349 348 348 349 349 347 347 346 346 347 346 346 345 346 346 345 341 341 348 346 342 344 344 345 345 345
326 329 327 327 330 331 329 329 329 329 335 342 343 344 346 347 346 346 347 348 349 349 349 349 348 347 349 348 348 348 345 345 345 347 344 345 346 346 343 340 335 339 342 342 343 345 345 345 346
326 325 325 326 329 330 330 328 328 329 332 340 342 343 346 347 344 346 348 347 349 349 348 349 348 348 348 348 347 347 347 345 345 344 343 346 346 345 342 340 335 335 341 343 345 348 346 345 346
325 325 327 330 328 329 328 328 328 328 333 334 339 340 343 347 347 347 346 347 348 348 348 349 349 349 349 348 347 344 343 344 344 344 343 345 344 344 343 339 338 339 343 343 346 346 344 346 344
324 326 328 329 326 326 328 328 328 330 334 333 333 336 338 345 347 348 347 347 346 346 348 349 349 349 349 348 349 346 348 346 346 346 345 343 343 344 341 342 342 342 344 342 343 344 340 345 343
327 328 324 323 323 325 325 331 333 333 334 334 336 339 340 342 347 348 347 347 347 347 348 348 349 349 349 349 350 348 346 349 347 347 346 344 345 343 340 341 343 346 344 344 342 343 343 344 346
326 321 323 326 329 326 325 332 331 331 331 334 337 340 341 344 347 347 347 347 347 347 348 348 349 349 349 349 350 348 346 347 348 348 346 344 344 342 344 342 343 343 342 344 342 344 345 348 345
327 322 322 331 328 327 328 332 331 330 336 340 342 343 344 347 348 348 348 348 348 348 348 349 349 349 350 350 350 348 345 345 346 346 345 342 339 342 343 344 344 342 340 343 346 344 344 343 344
328 327 323 324 325 326 329 332 332 337 341 342 342 344 346 346 347 349 349 343 349 350 348 349 349 350 351 351 350 349 349 348 347 346 345 342 343 344 344 346 344 342 340 342 343 339 343 344 345
329 325 328 323 330 334 331 336 335 343 344 342 342 344 346 349 349 350 340 344 349 349 352 350 349 350 351 352 351 349 350 349 348 346 344 343 344 345 346 345 346 344 342 343 340 341 343 344 345
326 325 324 324 326 332 332 334 340 344 343 341 339 342 347 348 348 347 336 338 335 341 349 354 350 351 352 352 352 351 350 349 348 346 342 343 344 347 345 343 345 345 344 342 344 342 341 345 341
324 326 322 325 325 328 328 333 338 336 340 337 336 337 346 350 348 348 347 341 335 336 345 352 353 351 352 352 353 351 347 348 347 347 343 342 345 346 345 345 346 344 342 343 344 343 341 344 343
Wind_Speed
2 6 14 21 7 4 6 3 4 8 6 16 16 8 7 8 1 4 23 25 27 27 24 24 23 24 25 27 26 24 23 22 23 24 24 23 23 23 21 20 18 17 15 14 12 11 9 8 7
5 10 14 8 6 3 6 5 4 14 18 26 21 17 10 3 7 26 32 26 26 26 25 24 22 22 24 24 24 23 23 20 18 20 23 23 23 23 20 19 17 15 13 11 10 9 8 7 7
2 5 3 4 4 7 2 4 16 13 19 12 8 13 6 7 24 33 29 30 28 26 24 23 22 22 22 21 22 23 24 22 19 17 18 21 24 23 19 17 15 13 11 10 8 7 6 5 5
2 4 3 3 4 6 9 5 15 16 18 8 17 6 9 14 29 27 29 29 28 26 24 23 22 21 20 19 20 21 19 19 19 18 18 21 21 19 17 15 14 12 11 9 7 6 5 4 4
4 4 3 3 3 12 8 13 21 16 17 21 19 7 15 23 22 27 26 29 27 25 23 22 20 20 18 17 17 17 18 18 16 14 20 19 18 17 17 15 13 11 9 7 6 5 5 4 5
3 2 2 3 2 2 5 20 24 22 26 20 12 12 10 19 29 28 27 25 24 25 23 20 19 18 17 16 15 15 16 16 15 13 19 17 17 16 15 15 13 11 9 6 5 3 4 5 5
4 3 3 2 2 3 3 14 16 17 17 4 8 3 14 33 31 28 23 21 23 21 21 21 20 18 17 15 14 15 14 15 14 12 14 16 15 18 18 16 15 12 10 7 5 5 5 5 4
6 4 2 3 2 2 3 9 19 25 5 21 7 6 16 31 34 30 25 24 22 20 19 18 18 18 17 16 14 14 13 13 13 11 11 14 18 15 17 19 17 13 10 7 7 6 7 5 4
4 5 2 4 3 3 6 10 17 10 18 6 2 10 25 37 37 33 31 28 23 23 22 20 17 17 17 15 15 14 13 12 10 9 8 10 15 20 17 25 17 14 11 10 8 7 8 5 6
5 4 6 6 4 2 6 23 9 9 6 1 6 22 27 40 40 38 37 30 27 26 24 21 19 16 16 16 15 14 12 11 8 7 6 8 9 13 14 23 15 13 11 10 9 8 7 7 6
6 6 6 5 6 3 2 15 15 13 5 15 25 23 26 33 38 38 37 32 30 26 23 21 18 15 17 16 15 14 12 9 7 8 8 10 12 12 15 18 14 12 8 6 7 7 8 7 9
5 9 6 10 10 5 2 13 9 16 7 7 19 28 26 35 38 38 37 31 23 24 22 20 17 14 17 15 16 12 12 10 9 8 9 15 12 10 14 13 10 9 7 7 7 8 8 10 9
4 3 11 12 12 8 8 5 6 13 15 18 20 24 35 33 36 35 30 28 24 26 23 21 20 18 16 16 15 12 12 10 8 10 9 15 11 9 9 10 9 5 9 8 11 9 8 10 10
4 4 3 9 10 12 8 4 5 14 24 23 24 27 38 37 37 36 36 30 32 28 25 22 23 20 15 15 17 12 14 12 10 9 9 13 11 10 9 7 7 7 7 10 12 12 10 11 8
14 5 6 7 6 6 9 2 6 24 27 28 28 30 37 36 35 35 39 34 36 30 28 26 23 17 18 19 20 16 16 16 13 12 10 12 15 12 11 7 8 8 11 14 13 11 11 8 10
6 4 1 5 6 4 6 7 8 24 28 25 30 34 37 38 37 35 33 33 35 31 31 27 24 24 24 22 22 18 18 17 14 15 13 13 16 15 13 11 9 9 10 10 13 13 12 9 8
3 4 3 4 10 3 4 7 5 19 24 25 30 34 36 33 35 36 35 31 34 31 29 29 28 27 26 25 24 19 18 17 17 16 15 13 17 16 10 12 10 10 11 12 8 11 13 14 13
5 0 3 3 4 4 6 8 5 21 26 26 28 31 37 36 35 39 34 31 34 31 30 27 26 26 25 26 20 17 21 20 20 18 17 16 14 15 18 14 14 11 10 11 9 10 14 11 11
8 1 3 5 7 7 6 7 10 9 25 21 24 31 37 41 34 33 34 36 36 34 31 29 29 25 25 25 24 22 25 21 22 19 19 19 15 14 17 16 16 10 8 6 8 10 14 12 10
4 2 6 7 9 2 5 9 8 5 11 30 31 32 38 37 34 36 35 38 39 35 33 30 27 25 26 23 20 17 22 24 20 19 19 20 16 15 14 19 16 13 12 12 13 12 13 11 9
4 2 4 6 5 4 3 10 6 14 8 22 28 40 39 46 37 40 42 39 39 40 34 31 28 27 26 23 19 16 21 22 28 25 21 20 20 19 13 15 16 14 12 12 13 14 14 11 14
1 7 3 4 5 3 4 5 8 9 3 9 24 26 36 42 40 43 43 42 43 39 34 30 29 27 27 22 22 18 18 23 26 27 26 23 21 20 18 23 19 15 13 14 13 15 16 13 14
8 3 2 2 4 5 4 3 8 7 4 6 6 14 31 39 44 47 46 46 41 37 34 31 29 25 23 24 21 17 18 15 11 14 19 25 25 23 14 18 18 16 14 14 12 14 15 13 14
3 3 8 6 3 4 4 5 6 4 1 5 4 2 9 35 42 47 47 45 37 37 35 31 29 25 24 23 21 19 17 17 17 17 19 24 24 23 21 21 19 16 14 15 15 15 14 14 13
6 7 4 6 5 6 4 4 8 8 8 7 7 10 8 26 38 40 43 42 37 37 36 32 28 25 24 23 22 20 19 17 17 17 19 21 20 20 21 24 21 18 16 15 19 16 16 13 13
4 7 5 2 2 6 6 2 6 7 15 28 26 31 27 18 34 41 45 34 38 36 34 32 30 27 24 22 23 21 18 18 18 17 18 17 19 14 22 23 18 17 16 15 16 18 14 14 14
5 3 6 5 1 3 3 6 7 12 16 23 25 36 35 15 13 17 22 14 20 29 34 34 33 29 25 25 22 21 19 18 16 15 17 16 18 18 22 20 18 16 17 17 19 17 14 10 13
4 3 4 4 1 2 5 2 3 5 7 8 12 24 36 26 19 23 21 19 19 11 21 37 35 31 26 23 21 20 18 14 13 15 14 18 20 20 22 21 19 18 16 17 18 16 14 12 13
7 6 5 3 4 4 3 3 3 4 3 6 6 19 29 28 17 7 22 4 11 20 19 33 38 33 30 25 22 19 17 15 14 17 14 18 23 21 22 23 20 19 21 20 19 17 15 14 17
6 2 4 4 8 2 3 4 5 5 4 8 7 12 27 28 23 9 21 13 24 20 23 30 40 33 30 26 22 18 17 15 16 18 21 15 24 24 22 23 22 20 23 23 21 19 17 14 16
Wind_Direction
325 21 49 80 51 13 332 32 88 114 68 81 119 138 111 44 221 179 144 159 158 154 155 149 145 146 142 145 144 145 146 147 154 158 159 161 161 156 152 154 152 148 148 145 146 144 141 139 131
55 134 66 63 94 68 297 319 78 109 114 110 98 91 54 68 94 134 146 160 156 156 156 151 150 150 146 145 144 146 144 144 145 156 163 166 164 162 159 157 155 152 154 154 154 153 146 145 143
44 124 36 105 145 156 88 293 83 121 109 110 107 82 77 104 127 140 148 157 158 156 155 154 153 155 154 151 149 150 149 148 151 155 159 165 165 165 165 164 165 165 168 171 166 163 151 159 166
159 134 13 58 212 201 173 180 98 101 64 85 118 67 100 143 147 149 149 159 158 157 158 157 154 156 157 157 158 159 161 164 164 175 176 171 172 175 170 172 168 170 171 173 175 180 179 201 213
208 146 13 255 20 65 322 114 110 100 78 73 103 118 120 149 153 148 152 161 165 161 161 160 160 162 164 164 166 166 171 173 175 182 179 185 182 182 180 174 174 180 184 187 200 207 206 225 233
238 206 75 339 24 9 94 109 103 102 112 115 106 106 149 174 156 154 154 163 167 164 165 167 166 167 170 171 175 177 178 183 185 183 192 198 200 198 194 192 189 188 194 199 214 225 243 248 250
213 119 114 265 75 347 78 122 123 131 134 119 41 79 136 159 165 157 159 149 160 164 168 170 169 171 171 176 181 186 189 192 196 199 199 198 202 208 205 203 202 200 200 211 243 256 260 254 249
206 105 111 336 188 192 136 128 115 115 126 145 123 189 176 162 163 165 166 156 157 164 174 173 175 177 178 180 185 190 192 195 200 202 205 208 203 197 211 207 207 207 215 236 257 253 255 244 208
187 69 126 233 112 205 170 98 83 94 151 219 130 169 171 166 159 168 170 167 171 174 182 183 185 183 185 187 188 190 193 195 200 204 205 199 203 213 222 206 207 220 234 245 252 251 247 210 193
102 103 179 164 132 95 186 115 152 135 166 304 157 149 151 158 166 171 173 174 181 178 183 185 191 194 192 192 193 192 196 199 201 202 191 180 180 187 201 193 201 223 235 242 246 239 222 194 189
165 135 167 118 121 152 83 133 160 148 211 192 169 156 157 174 180 185 182 189 187 182 178 182 183 199 201 199 195 195 199 204 196 184 180 170 150 148 168 185 205 210 216 218 227 220 208 198 198
119 150 155 182 173 186 132 139 137 170 178 143 179 175 161 175 181 185 192 191 186 186 182 182 184 194 195 193 194 193 198 198 181 183 185 188 180 174 178 189 189 195 199 208 211 211 203 202 182
134 155 163 198 179 178 159 144 167 163 150 140 156 168 171 174 189 196 196 198 196 192 192 198 189 190 192 194 198 189 196 186 185 196 193 199 199 193 178 195 201 206 198 190 183 186 186 202 231
341 334 200 216 193 191 155 179 172 170 156 156 163 169 176 183 189 192 196 202 202 202 201 201 201 199 202 201 206 200 197 192 190 184 189 200 205 205 191 197 234 223 225 206 210 217 220 215 229
327 345 319 201 188 184 150 191 220 170 166 168 174 175 181 188 189 199 202 202 202 208 206 205 206 214 211 207 203 198 202 211 203 197 196 205 204 208 203 231 241 240 235 236 228 232 236 208 234
344 60 248 218 205 228 141 263 257 168 175 181 186 184 186 193 199 208 208 212 206 202 204 210 205 216 213 210 205 208 219 216 209 204 197 200 207 210 230 227 227 234 223 224 242 227 244 232 256
338 219 263 335 217 197 164 252 225 200 189 187 201 197 197 198 201 205 208 216 205 203 208 204 206 211 209 210 214 213 216 222 214 206 204 209 210 218 222 223 214 214 223 220 239 240 240 234 234
316 191 290 249 262 226 231 259 271 200 208 218 205 198 199 199 202 206 207 213 205 205 206 208 205 208 208 208 212 222 208 218 213 210 210 208 215 219 226 224 217 221 225 217 231 219 214 212 207
256 298 341 287 280 178 234 280 275 219 212 214 214 206 189 196 198 197 199 204 203 205 205 205 203 203 204 201 211 219 214 216 211 210 219 220 214 225 227 221 217 223 229 214 210 207 211 209 219
71 17 300 313 292 124 292 284 285 276 225 209 206 204 198 191 192 191 192 194 202 204 204 204 203 202 200 204 211 226 214 216 214 217 230 226 229 230 225 219 227 233 236 242 227 220 210 210 191
347 243 258 250 316 307 8 317 330 298 280 197 201 210 201 197 193 189 192 198 203 202 206 205 203 206 203 199 197 204 208 214 216 223 227 226 230 226 234 234 219 234 238 229 216 221 220 222 216
195 268 293 316 35 293 90 290 308 313 273 179 202 199 202 203 198 194 195 198 204 208 206 203 204 205 207 199 197 201 205 209 216 229 230 230 229 230 252 243 223 221 221 206 211 219 228 230 217
243 268 277 334 10 9 310 53 275 26 282 242 200 218 209 203 199 198 200 202 202 204 204 204 205 203 206 204 205 212 211 210 215 220 229 233 238 229 241 212 206 204 209 214 218 215 228 223 217
242 334 21 33 73 356 243 142 304 289 262 295 195 196 171 198 197 197 197 200 200 203 202 204 203 205 203 208 211 223 222 214 220 228 227 224 228 230 243 212 200 195 202 210 198 211 224 219 215
49 55 348 352 7 227 341 82 228 277 264 236 159 65 170 187 187 186 191 197 197 202 203 204 205 207 209 211 215 228 228 228 233 236 234 229 210 222 213 200 198 203 205 210 217 212 206 209 215
207 147 155 245 273 274 302 44 284 16 45 71 53 49 45 195 190 196 196 192 200 202 207 210 211 209 212 216 220 227 228 237 243 245 230 210 197 211 201 203 196 204 206 209 211 196 193 207 199
273 305 186 137 108 45 275 302 26 24 44 59 57 55 47 75 175 167 157 176 207 209 212 215 219 214 217 218 223 226 230 232 238 236 218 217 207 203 204 206 200 200 214 212 207 194 194 184 180
91 237 358 8 3 302 306 245 264 47 24 41 47 73 70 66 120 145 122 190 180 225 242 224 224 220 217 220 225 225 229 230 239 224 227 210 197 200 205 207 207 213 217 208 195 200 206 192 191
352 19 4 128 134 173 204 248 209 173 221 83 49 80 90 86 73 179 181 208 190 260 281 238 226 221 219 221 224 227 231 230 232 218 209 205 192 195 206 207 209 223 217 207 202 200 197 199 193
131 103 111 97 301 243 165 267 190 278 152 109 55 54 81 87 75 62 205 205 166 224 248 229 229 221 222 225 225 230 233 234 233 219 214 209 196 199 214 215 208 213 218 209 205 204 206 212 209